KUIPER-00029

导读

KUIPER-00029是美国亚马逊“柯伊伯计划”卫星互联网星座中的一颗量产卫星,于2025年4月28日发射升空。该计划计划在近地轨道部署3236颗卫星,为全球提供高速低延迟互联网接入,尤其服务网络覆盖薄弱地区,并深度整合亚马逊AWS云服务,拓展边缘计算等场景,与SpaceX星链形成市场竞争。

Basic Information
目录编号:
63742
目录名称:
KUIPER-00029
国际标识:
2025-088U
轨道中心:
EARTH
卫星名称:
KUIPER-00029
卫星全名:
KUIPER-00029
卫星状态:
在轨 (已飞行505 天)
发射日期:
2025-04-28 UTC
国别 :
美国 (US)
星等 :
--
This satellite is enrolled in the Space Conjunction Data Service (SCDS) and the current flight risk assessment level is: No High Risk
Orbit Information
数据来源 国际轨道数据 AOE轨道数据
星历时间 2026-09-15T13:29:56+0800
16小时前
查看轨道信息
2026-09-14T05:00:00+0800
2天前
查看轨道信息
半长轴 7007.703km 7007.72km
偏心率 0.0000018 0.000001
轨道倾角 51.905° 51.903°
近地点辐角 274.578° 79.098°
升交点赤经 333.600° 339.589°
平近点角 85.518° 262.229°
近地点 629.553km 629.575km
远地点 629.579km 629.591km
周期 97.302分钟 97.303分钟
每日圈数 14.799235 14.799182
Detailed Information
使用方式:
暂无
2D Orbit Map
3D Orbit Map
Orbit Altitude Analysis Chart
Orbit Inclination Analysis Chart
Orbit Comprehensive Analysis Chart
View Comprehensive Chart
Miss Distance Evolution Trend with All Objects Subscribe to Flight Safety Assessment
Collision Probability Evolution Trend with All Objects Subscribe to Flight Safety Assessment